Location: Street
(51.1247°N, 2.7429°W)
Time: 16:07:12
(UTC+00:00)

SR - Pass Details

Date: 26 November 2020
Orbit: 575 x 880 km, 66.7° (Epoch: 26 January)

Event Time Altitude Azimuth Distance (km) Brightness Sun altitude
Rises 04:02:30 0° 320° (NW) 3,146 - -34.3°
Reaches altitude 10° 04:04:49 10° 316° (NW) 2,269 - -33.9°
Maximum altitude 04:09:55 57° 239° (WSW) 929 - -33.1°
Exits shadow 04:14:46 13° 163° (SSE) 2,199 ? -32.3°
Drops below altitude 10° 04:15:25 10° 162° (SSE) 2,440 ? -32.2°
Sets 04:17:59 0° 158° (SSE) 3,404 ? -31.8°
